FTT1 CYVR-KPDX

Flight info

Callsign FTT1
Flight time 0h 44m
Altitude 29000
Route GRG8/26L SEA DCT BUWZO KRATR2
Aircraft A20N/M-SDE2E3FGHIRWXY/LB1

Departure

Time 2026-05-08 03:07
Airport Vancouver International Airport (CYVR)

Arrival

Time 2026-05-08 03:52
Airport Portland International Airport (KPDX)
Time Latitude Longitude Altitude Speed Heading
2026-05-08 02:38 49.19217 -123.18485 17 ft 0 kts 68°
2026-05-08 02:54 49.19217 -123.18487 17 ft 1 kts 68°
2026-05-08 02:54 49.19208 -123.18520 21 ft 3 kts 90°
2026-05-08 02:55 49.19223 -123.18586 19 ft 7 kts 143°
2026-05-08 02:55 49.19217 -123.18593 20 ft 0 kts 142°
2026-05-08 03:03 49.19197 -123.18574 18 ft 10 kts 155°
2026-05-08 03:03 49.19110 -123.18610 18 ft 16 kts 174°
2026-05-08 03:03 49.18997 -123.18490 18 ft 23 kts 142°
2026-05-08 03:04 49.18932 -123.18245 19 ft 29 kts 100°
2026-05-08 03:04 49.18895 -123.17915 18 ft 34 kts 100°
2026-05-08 03:04 49.18851 -123.17538 18 ft 39 kts 98°
2026-05-08 03:04 49.18803 -123.17114 20 ft 42 kts 99°
2026-05-08 03:05 49.18750 -123.16655 18 ft 40 kts 98°
2026-05-08 03:05 49.18728 -123.16447 18 ft 20 kts 100°
2026-05-08 03:05 49.18667 -123.16239 21 ft 20 kts 135°
2026-05-08 03:05 49.18643 -123.16197 20 ft 14 kts 117°
2026-05-08 03:06 49.18601 -123.16044 19 ft 0 kts 154°
2026-05-08 03:06 49.18544 -123.16040 20 ft 21 kts 190°
2026-05-08 03:06 49.18485 -123.16181 19 ft 2 kts 279°
2026-05-08 03:06 49.18489 -123.16223 20 ft 27 kts 279°
2026-05-08 03:07 49.18575 -123.16998 16 ft 115 kts 279°
2026-05-08 03:07 49.18749 -123.18530 31 ft 175 kts 278°
2026-05-08 03:07 49.18975 -123.20480 532 ft 192 kts 279°
2026-05-08 03:07 49.19232 -123.22574 1332 ft 208 kts 278°
2026-05-08 03:08 49.19492 -123.24854 2093 ft 227 kts 278°
2026-05-08 03:08 49.19681 -123.27345 2874 ft 241 kts 266°
2026-05-08 03:08 49.19500 -123.29899 3931 ft 243 kts 263°
2026-05-08 03:08 49.19281 -123.32493 4714 ft 247 kts 263°
2026-05-08 03:09 49.19055 -123.35126 5531 ft 253 kts 262°
2026-05-08 03:09 49.18850 -123.37807 6539 ft 256 kts 261°
2026-05-08 03:09 49.18306 -123.40381 7432 ft 260 kts 236°
2026-05-08 03:09 49.17007 -123.42398 8033 ft 275 kts 209°
2026-05-08 03:10 49.15188 -123.43257 8987 ft 276 kts 182°
2026-05-08 03:10 49.13288 -123.42784 9923 ft 283 kts 158°
2026-05-08 03:10 49.11554 -123.41401 10788 ft 287 kts 149°
2026-05-08 03:10 49.09830 -123.39804 11651 ft 292 kts 150°
2026-05-08 03:11 49.08038 -123.38270 12495 ft 297 kts 153°
2026-05-08 03:11 49.06178 -123.36843 13341 ft 302 kts 155°
2026-05-08 03:11 49.04253 -123.35476 14064 ft 312 kts 156°
2026-05-08 03:11 49.02190 -123.34070 14298 ft 336 kts 157°
2026-05-08 03:12 48.99974 -123.32586 14500 ft 359 kts 157°
2026-05-08 03:12 48.97636 -123.31025 14925 ft 372 kts 157°
2026-05-08 03:12 48.95257 -123.29433 15672 ft 375 kts 158°
2026-05-08 03:12 48.92860 -123.27826 16416 ft 378 kts 158°
2026-05-08 03:13 48.90439 -123.26205 17131 ft 382 kts 158°
2026-05-08 03:13 48.87989 -123.24567 17845 ft 386 kts 158°
2026-05-08 03:13 48.85519 -123.22918 18530 ft 390 kts 158°
2026-05-08 03:13 48.83014 -123.21247 19103 ft 395 kts 158°
2026-05-08 03:14 48.80479 -123.19558 19678 ft 400 kts 158°
2026-05-08 03:14 48.77910 -123.17849 20238 ft 406 kts 158°
2026-05-08 03:14 48.75305 -123.16116 20776 ft 411 kts 159°
2026-05-08 03:14 48.72671 -123.14367 21331 ft 416 kts 159°
2026-05-08 03:15 48.70006 -123.12599 21876 ft 421 kts 159°
2026-05-08 03:15 48.67307 -123.10811 22402 ft 426 kts 159°
2026-05-08 03:15 48.64576 -123.09003 22971 ft 431 kts 159°
2026-05-08 03:15 48.61792 -123.07164 23183 ft 444 kts 159°
2026-05-08 03:16 48.58921 -123.05270 23320 ft 456 kts 159°
2026-05-08 03:16 48.55984 -123.03332 23443 ft 466 kts 159°
2026-05-08 03:16 48.52974 -123.01348 23568 ft 477 kts 159°
2026-05-08 03:16 48.49906 -122.99329 23682 ft 486 kts 159°
2026-05-08 03:17 48.46825 -122.97303 23880 ft 492 kts 159°
2026-05-08 03:17 48.43687 -122.95242 24204 ft 494 kts 159°
2026-05-08 03:17 48.40529 -122.93172 24514 ft 496 kts 159°
2026-05-08 03:17 48.37351 -122.91092 24788 ft 499 kts 159°
2026-05-08 03:18 48.34161 -122.89008 25020 ft 502 kts 159°
2026-05-08 03:18 48.30952 -122.86915 25247 ft 504 kts 159°
2026-05-08 03:18 48.27730 -122.84815 25482 ft 506 kts 159°
2026-05-08 03:18 48.24495 -122.82710 25649 ft 508 kts 159°
2026-05-08 03:19 48.21247 -122.80600 25955 ft 509 kts 159°
2026-05-08 03:19 48.17993 -122.78489 26101 ft 511 kts 159°
2026-05-08 03:19 48.14734 -122.76377 26277 ft 511 kts 159°
2026-05-08 03:19 48.11463 -122.74261 26437 ft 512 kts 160°
2026-05-08 03:20 48.08193 -122.72147 26636 ft 512 kts 160°
2026-05-08 03:20 48.04926 -122.70039 26833 ft 511 kts 160°
2026-05-08 03:20 48.01660 -122.67935 27040 ft 511 kts 160°
2026-05-08 03:20 47.98398 -122.65836 27236 ft 511 kts 160°
2026-05-08 03:21 47.95128 -122.63735 27426 ft 511 kts 160°
2026-05-08 03:21 47.91860 -122.61637 27630 ft 511 kts 160°
2026-05-08 03:21 47.88608 -122.59553 27913 ft 508 kts 160°
2026-05-08 03:21 47.85355 -122.57472 28129 ft 508 kts 160°
2026-05-08 03:22 47.82108 -122.55397 28331 ft 508 kts 160°
2026-05-08 03:22 47.78860 -122.53324 28518 ft 508 kts 160°
2026-05-08 03:22 47.75612 -122.51254 28727 ft 507 kts 160°
2026-05-08 03:22 47.72369 -122.49190 28905 ft 507 kts 160°
2026-05-08 03:23 47.69120 -122.47126 29059 ft 508 kts 160°
2026-05-08 03:23 47.62679 -122.43040 29096 ft 506 kts 160°
2026-05-08 03:24 47.56201 -122.38942 29094 ft 507 kts 160°
2026-05-08 03:24 47.49710 -122.34847 29090 ft 508 kts 160°
2026-05-08 03:25 47.43044 -122.31663 29100 ft 501 kts 173°
2026-05-08 03:25 47.36153 -122.30916 29101 ft 495 kts 184°
2026-05-08 03:26 47.29267 -122.30955 29079 ft 495 kts 184°
2026-05-08 03:26 47.22389 -122.30962 29088 ft 494 kts 184°
2026-05-08 03:27 47.15506 -122.30962 29085 ft 494 kts 184°
2026-05-08 03:27 47.08631 -122.30961 29101 ft 494 kts 184°
2026-05-08 03:28 47.01747 -122.30962 29100 ft 496 kts 184°
2026-05-08 03:28 46.94849 -122.30962 29102 ft 495 kts 184°
2026-05-08 03:29 46.87959 -122.30961 29102 ft 493 kts 184°
2026-05-08 03:29 46.81100 -122.30961 29094 ft 493 kts 184°
2026-05-08 03:30 46.70759 -122.30963 29099 ft 495 kts 184°
2026-05-08 03:31 46.56965 -122.30958 29096 ft 496 kts 184°
2026-05-08 03:31 46.50120 -122.30958 28799 ft 491 kts 184°
2026-05-08 03:32 46.46709 -122.30958 28040 ft 489 kts 184°
2026-05-08 03:32 46.43305 -122.30960 27055 ft 489 kts 184°
2026-05-08 03:32 46.39902 -122.30961 25979 ft 489 kts 184°
2026-05-08 03:32 46.36495 -122.30963 24974 ft 488 kts 184°
2026-05-08 03:33 46.33116 -122.30961 24227 ft 483 kts 184°
2026-05-08 03:33 46.29804 -122.31005 23504 ft 476 kts 186°
2026-05-08 03:33 46.26549 -122.31468 22555 ft 464 kts 192°
2026-05-08 03:33 46.23420 -122.32410 21308 ft 456 kts 198°
2026-05-08 03:34 46.20441 -122.33821 20171 ft 447 kts 204°
2026-05-08 03:34 46.17577 -122.35491 19160 ft 440 kts 204°
2026-05-08 03:34 46.14790 -122.37070 18749 ft 419 kts 204°
2026-05-08 03:34 46.12146 -122.38532 18507 ft 395 kts 204°
2026-05-08 03:35 46.09648 -122.39910 18289 ft 374 kts 204°
2026-05-08 03:35 46.07287 -122.41205 18091 ft 354 kts 204°
2026-05-08 03:35 46.05074 -122.42393 17964 ft 316 kts 204°
2026-05-08 03:35 46.03482 -122.43233 17679 ft 277 kts 204°
2026-05-08 03:36 46.01782 -122.44133 17182 ft 254 kts 205°
2026-05-08 03:36 46.00050 -122.45079 16164 ft 278 kts 205°
2026-05-08 03:36 45.98189 -122.46102 15397 ft 293 kts 205°
2026-05-08 03:36 45.96242 -122.47161 14667 ft 306 kts 204°
2026-05-08 03:37 45.94211 -122.48152 13966 ft 319 kts 196°
2026-05-08 03:37 45.91980 -122.48465 13446 ft 325 kts 180°
2026-05-08 03:37 45.89766 -122.48014 13315 ft 316 kts 173°
2026-05-08 03:37 45.87650 -122.47465 13206 ft 303 kts 173°
2026-05-08 03:38 45.85609 -122.46954 13095 ft 291 kts 174°
2026-05-08 03:38 45.83654 -122.46469 12985 ft 279 kts 174°
2026-05-08 03:38 45.81777 -122.46004 12880 ft 268 kts 174°
2026-05-08 03:38 45.79964 -122.45555 12601 ft 263 kts 174°
2026-05-08 03:39 45.78168 -122.45114 12267 ft 261 kts 174°
2026-05-08 03:39 45.76376 -122.44672 11912 ft 260 kts 174°
2026-05-08 03:39 45.74598 -122.44233 11591 ft 258 kts 174°
2026-05-08 03:39 45.72815 -122.43793 11144 ft 263 kts 174°
2026-05-08 03:40 45.70995 -122.43345 10668 ft 268 kts 174°
2026-05-08 03:40 45.69141 -122.42888 10192 ft 273 kts 174°
2026-05-08 03:40 45.67251 -122.42420 9700 ft 277 kts 174°
2026-05-08 03:40 45.65335 -122.41946 9184 ft 281 kts 173°
2026-05-08 03:41 45.63396 -122.41466 8679 ft 285 kts 173°
2026-05-08 03:41 45.61431 -122.40980 8174 ft 288 kts 173°
2026-05-08 03:41 45.59451 -122.40390 7671 ft 294 kts 163°
2026-05-08 03:41 45.57708 -122.38842 7197 ft 302 kts 137°
2026-05-08 03:42 45.56542 -122.36322 6718 ft 308 kts 111°
2026-05-08 03:42 45.56177 -122.33332 6440 ft 304 kts 93°
2026-05-08 03:42 45.56062 -122.30383 6320 ft 291 kts 97°
2026-05-08 03:42 45.55733 -122.27599 6211 ft 278 kts 105°
2026-05-08 03:43 45.55181 -122.25017 6104 ft 266 kts 112°
2026-05-08 03:43 45.54501 -122.22625 6005 ft 254 kts 116°
2026-05-08 03:43 45.53776 -122.20387 5875 ft 243 kts 118°
2026-05-08 03:43 45.53046 -122.18253 5433 ft 243 kts 118°
2026-05-08 03:44 45.52256 -122.16135 5039 ft 239 kts 129°
2026-05-08 03:44 45.50994 -122.14689 4605 ft 232 kts 161°
2026-05-08 03:44 45.49445 -122.14417 4121 ft 226 kts 193°
2026-05-08 03:44 45.47966 -122.15149 3656 ft 224 kts 204°
2026-05-08 03:45 45.46584 -122.16159 3213 ft 222 kts 223°
2026-05-08 03:45 45.45759 -122.17950 2941 ft 216 kts 257°
2026-05-08 03:45 45.45543 -122.20046 2988 ft 215 kts 264°
2026-05-08 03:45 45.45461 -122.22202 2991 ft 215 kts 276°
2026-05-08 03:46 45.45797 -122.24196 2993 ft 205 kts 292°
2026-05-08 03:46 45.46418 -122.26050 2990 ft 208 kts 298°
2026-05-08 03:46 45.47126 -122.27832 2989 ft 207 kts 299°
2026-05-08 03:46 45.47827 -122.29623 2985 ft 207 kts 298°
2026-05-08 03:47 45.48525 -122.31415 2992 ft 207 kts 299°
2026-05-08 03:47 45.49203 -122.33153 2980 ft 193 kts 298°
2026-05-08 03:47 45.49815 -122.34722 3016 ft 174 kts 298°
2026-05-08 03:47 45.50384 -122.36184 2996 ft 167 kts 298°
2026-05-08 03:48 45.50956 -122.37655 2969 ft 170 kts 298°
2026-05-08 03:48 45.51532 -122.39129 2789 ft 170 kts 298°
2026-05-08 03:48 45.52105 -122.40602 2563 ft 169 kts 298°
2026-05-08 03:48 45.52673 -122.42061 2338 ft 168 kts 298°
2026-05-08 03:49 45.53241 -122.43518 2114 ft 168 kts 298°
2026-05-08 03:49 45.53793 -122.44938 1889 ft 159 kts 298°
2026-05-08 03:49 45.54302 -122.46243 1683 ft 143 kts 298°
2026-05-08 03:49 45.54780 -122.47473 1493 ft 143 kts 298°
2026-05-08 03:50 45.55261 -122.48708 1308 ft 143 kts 298°
2026-05-08 03:50 45.55744 -122.49949 1121 ft 143 kts 298°
2026-05-08 03:50 45.56228 -122.51193 934 ft 143 kts 299°
2026-05-08 03:50 45.56710 -122.52432 739 ft 141 kts 299°
2026-05-08 03:51 45.57176 -122.53631 569 ft 137 kts 299°
2026-05-08 03:51 45.57633 -122.54807 389 ft 134 kts 300°
2026-05-08 03:51 45.58087 -122.55974 216 ft 133 kts 299°
2026-05-08 03:51 45.58519 -122.57108 43 ft 130 kts 299°
2026-05-08 03:52 45.58891 -122.58051 33 ft 58 kts 299°
2026-05-08 03:52 45.59024 -122.58405 34 ft 38 kts 303°
2026-05-08 03:52 45.59151 -122.58727 35 ft 35 kts 294°
2026-05-08 03:52 45.59211 -122.59055 37 ft 33 kts 272°
2026-05-08 03:53 45.59211 -122.59153 37 ft 0 kts 269°
2026-05-08 03:54 45.59210 -122.59192 36 ft 13 kts 269°
2026-05-08 03:54 45.59209 -122.59400 30 ft 23 kts 280°
2026-05-08 03:55 45.59282 -122.59602 29 ft 8 kts 288°
2026-05-08 03:55 45.59268 -122.59632 29 ft 1 kts 210°
2026-05-08 03:55 45.59210 -122.59647 30 ft 0 kts 199°